+ View the NASA Portal
+ Center for Near-Earth Object Studies
IMPORTANT:
The SSD Announcement email list is now available. Major changes are coming in the near future, including possible hostname and/or URL changes. To be notified of such changes, subscribe to this email list.
Please visit
this page
for more details.
Don't show this message again
JPL Small-Body Database Browser
Search:
[
help
]
266168 (2006 UY223)
Classification:
Main-belt Asteroid
SPK-ID:
2266168
[
Ephemeris
|
Orbit Diagram
|
Orbital Elements
|
Mission Design
|
Physical Parameters
|
Discovery Circumstances
]
[ show orbit diagram ]
Orbital Elements at Epoch 2458600.5 (2019-Apr-27.0) TDB
Reference:
JPL 11
(heliocentric ecliptic J2000)
Element
Value
Uncertainty (1-sigma)
Units
e
.136982484138644
6.1681e-08
a
2.305946778377965
1.9986e-08
au
q
1.990072460384248
1.3744e-07
au
i
4.247029593247563
6.9448e-06
deg
node
214.7895451387528
9.4091e-05
deg
peri
242.1277576273531
9.8809e-05
deg
M
145.9489980012899
2.7923e-05
deg
t
p
2458081.973492166022
(2017-Nov-24.47349217)
9.9451e-05
TDB
period
1279.005305802664
3.50
1.6628e-05
4.552e-08
d
yr
n
.2814687307134158
3.6592e-09
deg/d
Q
2.621821096371681
2.2723e-08
au
Orbit Determination Parameters
# obs. used (total)
149
data-arc span
5147 days (14.09 yr)
first obs. used
2003-12-22
last obs. used
2018-01-24
planetary ephem.
DE431
SB-pert. ephem.
SB431-N16
condition code
0
norm. resid. RMS
.52739
source
ORB
producer
Otto Matic
solution date
2018-Feb-06 08:44:49
Additional Information
Earth MOID
= 1.01106 au
Jupiter MOID
= 2.54259 au
T_jup
= 3.572
[ show covariance matrix ]
[
Ephemeris
|
Orbit Diagram
|
Orbital Elements
|
Mission Design
|
Physical Parameters
|
Discovery Circumstances
]
Physical Parameter Table
Parameter
Symbol
Value
Units
Sigma
Reference
Notes
absolute magnitude
H
17.7
n/a
MPO433727
266168 (2006 UY223)
Discovered 2006-Oct-19 by Mt. Lemmon Survey at Mount Lemmon
Reference:
20110218/Numbers.arc
Last Updated:
2011-02-22
Alternate Designations
2006 UY223
= 2008 HX27
[
Ephemeris
|
Orbit Diagram
|
Orbital Elements
|
Mission Design
|
Physical Parameters
|
Discovery Circumstances
]
2019-Dec-08 10:56 UT
(server date/time)
Site Manager:
Ryan S. Park
Webmaster
:
Alan B. Chamberlin